Weather History for Punta Gorda, FL

Change the Weather History Date:

Sunday, January 6, 2013

  Actual Average Record
Temperature  
Mean Temperature 74 °F -  
Max Temperature 82 °F 71 °F 84 °F (1998)
Min Temperature 66 °F 48 °F 30 °F (1999)
Cooling Degree Days 9    
Growing Degree Days 24 (Base 50)    
Moisture  
Dew Point 66 °F    
Average Humidity 88    
Maximum Humidity 100    
Minimum Humidity 58    
Precipitation  
Precipitation 0.00 in - - ()
Sea Level Pressure  
Sea Level Pressure 30.16 in    
Wind  
Wind Speed 6 mph (ENE)    
Max Wind Speed 15 mph    
Max Gust Speed -    
Visibility 6 miles    
Events Fog    
Averages and records for this station are not official NWS values.
T = Trace of Precipitation, MM = Missing Value Source: NWS Daily Summary

Daily Weather History Graph

Daily Weather History Graph

Search for Another Location

Airport:

Trip Planner

Search our weather history database for the weather conditions in past years. The results will help you decide how hot, cold, wet, or windy it might be!

Date:

Astronomy

Jan. 06, 2013 Rise Set
Actual Time 7:18 AM EST 5:49 PM EST
Civil Twilight 6:52 AM EST 6:15 PM EST
Nautical Twilight 6:24 AM EST 6:44 PM EST
Astronomical Twilight 5:55 AM EST 7:12 PM EST
Moon 1:43 AM EST (1/6) 1:06 PM EST (1/6)
Length of Visible Light 11h 22m
Length of Day
10h 31m
Waning Crescent, 33% of the Moon is Illuminated
Jan 6
Waning Crescent
Jan 11
New
Jan 18
First Quarter
Jan 26
Full
Feb 3
Last Quarter

Hourly Weather History & Observations

Time (EST) Temp. Heat Index Dew Point Humidity Pressure Visibility Wind Dir Wind Speed Gust Speed Precip Events Conditions
12:15 AM 66.2 °F - 64.4 °F 94% 30.22 in 3.0 mi NE 4.6 mph - N/A   Mostly Cloudy
12:20 AM 66.2 °F - 64.4 °F 94% 30.22 in 1.5 mi NE 4.6 mph - N/A   Mostly Cloudy
12:29 AM 66.2 °F - 64.4 °F 94% 30.22 in 0.2 mi NE 5.8 mph - N/A Fog Fog
12:53 AM 66.0 °F - 64.9 °F 96% 30.21 in 0.2 mi ENE 5.8 mph - N/A Fog Fog
1:53 AM 66.0 °F - 64.9 °F 96% 30.19 in 0.5 mi East 5.8 mph - N/A Fog Fog
2:53 AM 66.0 °F - 66.0 °F 100% 30.18 in 0.2 mi East 4.6 mph - N/A Fog Fog
3:53 AM 66.9 °F - 66.0 °F 97% 30.17 in 0.5 mi East 4.6 mph - N/A Fog Fog
5:04 AM 66.2 °F - 66.2 °F 100% 30.16 in 1.2 mi East 5.8 mph - N/A   Overcast
5:16 AM 66.2 °F - 66.2 °F 100% 30.16 in 0.8 mi ENE 4.6 mph - N/A   Mist
5:53 AM 66.0 °F - 64.9 °F 96% 30.16 in 0.2 mi ENE 6.9 mph - N/A Fog Fog
6:53 AM 66.0 °F - 64.9 °F 96% 30.17 in 0.8 mi East 5.8 mph - N/A   Mist
7:53 AM 66.0 °F - 64.9 °F 96% 30.18 in 0.2 mi East 4.6 mph - N/A Fog Fog
8:53 AM 66.9 °F - 66.0 °F 97% 30.19 in 0.2 mi ENE 4.6 mph - N/A Fog Fog
9:15 AM 68.0 °F - 66.2 °F 94% 30.19 in 2.0 mi East 5.8 mph - N/A   Overcast
9:22 AM 68.0 °F - 66.2 °F 94% 30.19 in 1.0 mi East 8.1 mph - N/A   Overcast
9:46 AM 69.8 °F - 68.0 °F 94% 30.19 in 5.0 mi East 5.8 mph - N/A   Overcast
9:53 AM 69.1 °F - 68.0 °F 96% 30.19 in 5.0 mi Variable 5.8 mph - N/A   Overcast
10:04 AM 69.8 °F - 68.0 °F 94% 30.19 in 7.0 mi East 8.1 mph - N/A   Overcast
10:42 AM 75.2 °F - 68.0 °F 78% 30.18 in 10.0 mi SSE 8.1 mph - N/A   Mostly Cloudy
10:53 AM 75.0 °F - 68.0 °F 79% 30.18 in 10.0 mi East 5.8 mph - N/A   Mostly Cloudy
11:53 AM 80.1 °F 82.7 °F 68.0 °F 67% 30.16 in 10.0 mi SSE 8.1 mph - N/A   Mostly Cloudy
12:53 PM 80.1 °F 82.3 °F 66.9 °F 64% 30.12 in 10.0 mi South 10.4 mph - N/A   Partly Cloudy
1:53 PM 80.1 °F 82.1 °F 66.0 °F 62% 30.09 in 10.0 mi South 5.8 mph - N/A   Scattered Clouds
2:53 PM 82.9 °F 85.4 °F 66.9 °F 58% 30.08 in 10.0 mi WSW 15.0 mph - N/A   Mostly Cloudy
3:53 PM 81.0 °F 82.7 °F 64.9 °F 58% 30.09 in 10.0 mi WSW 15.0 mph - N/A   Clear
4:53 PM 78.1 °F - 68.0 °F 71% 30.10 in 10.0 mi West 9.2 mph - N/A   Clear
5:53 PM 75.0 °F - 68.0 °F 79% 30.11 in 10.0 mi WSW 5.8 mph - N/A   Overcast
6:53 PM 73.9 °F - 68.0 °F 82% 30.12 in 10.0 mi West 3.5 mph - N/A   Overcast
7:53 PM 72.0 °F - 68.0 °F 87% 30.13 in 10.0 mi Calm Calm - N/A   Partly Cloudy
8:53 PM 69.1 °F - 66.9 °F 93% 30.14 in 10.0 mi NW 3.5 mph - N/A   Clear
9:53 PM 69.1 °F - 68.0 °F 96% 30.15 in 10.0 mi North 5.8 mph - N/A   Clear
10:09 PM 69.8 °F - 68.0 °F 94% 30.15 in 10.0 mi NNW 5.8 mph - N/A   Partly Cloudy
10:20 PM 69.8 °F - 68.0 °F 94% 30.15 in 10.0 mi NNW 5.8 mph - N/A   Mostly Cloudy
10:31 PM 69.8 °F - 66.2 °F 88% 30.15 in 10.0 mi NW 6.9 mph - N/A   Overcast
10:48 PM 69.8 °F - 66.2 °F 88% 30.16 in 10.0 mi North 4.6 mph - N/A   Mostly Cloudy
10:53 PM 69.1 °F - 66.9 °F 93% 30.16 in 10.0 mi North 4.6 mph - N/A   Scattered Clouds
11:53 PM 66.9 °F - 64.9 °F 93% 30.14 in 9.0 mi East 3.5 mph - N/A   Clear